When you browse on this site, cookies collect data to enhance your experience and personalize the content and advertising you see.
Visit our Privacy Policy to learn more. By continuing to use the site, you agree to this use of cookies and data.

Stündliche Wetter Bern

Heute, 28 September, Montag

Zeit Temperatur Niederschläge Wind Luftdruck Luftfeuchtigkeit
00:00 +6°C° 0 mm 0 m/S 709 mmHg 95%
01:00 +6°C° 0 mm 0 m/S 709 mmHg 94%
02:00 +6°C° 0 mm 0 m/S 709 mmHg 93%
03:00 +6°C° 0 mm 0 m/S 709 mmHg 91%
04:00 +6°C° 0 mm 0 m/S 709 mmHg 91%
05:00 +6°C° 0 mm 0 m/S 709 mmHg 90%
06:00 +7°C° 0 mm 1 m/S 710 mmHg 90%
07:00 +9°C° 0 mm 1 m/S 710 mmHg 85%
08:00 +10°C° 0 mm 1 m/S 710 mmHg 80%
09:00 +11°C° 0 mm 1 m/S 710 mmHg 75%
10:00 +12°C° 0 mm 1 m/S 710 mmHg 70%
11:00 +14°C° 0 mm 1 m/S 710 mmHg 66%
12:00 +15°C° 0 mm 2 m/S 711 mmHg 61%
13:00 +15°C° 0.1 mm 2 m/S 711 mmHg 63%
14:00 +15°C° 0.1 mm 2 m/S 711 mmHg 65%
15:00 +15°C° 0.1 mm 2 m/S 711 mmHg 67%
16:00 +13°C° 0.1 mm 2 m/S 711 mmHg 75%
17:00 +12°C° 0.1 mm 2 m/S 712 mmHg 83%
18:00 +10°C° 0.1 mm 1 m/S 713 mmHg 91%
19:00 +9°C° 0.7 mm 2 m/S 713 mmHg 93%
20:00 +9°C° 0.7 mm 2 m/S 713 mmHg 95%
21:00 +9°C° 0.7 mm 2 m/S 714 mmHg 97%
22:00 +10°C° 1.2 mm 2 m/S 714 mmHg 97%
23:00 +10°C° 1.2 mm 2 m/S 714 mmHg 96%

Morgen, 29 September, Dienstag

Zeit Temperatur Niederschläge Wind Luftdruck Luftfeuchtigkeit
00:00 +10°C° 1.2 mm 2 m/S 714 mmHg 96%
01:00 +10°C° 1.1 mm 2 m/S 714 mmHg 96%
02:00 +10°C° 1.1 mm 2 m/S 714 mmHg 97%
03:00 +10°C° 1.1 mm 2 m/S 714 mmHg 97%
04:00 +10°C° 0.7 mm 2 m/S 715 mmHg 97%
05:00 +10°C° 0.7 mm 2 m/S 715 mmHg 97%
06:00 +11°C° 0.7 mm 1 m/S 715 mmHg 97%
07:00 +11°C° 0.2 mm 1 m/S 715 mmHg 96%
08:00 +11°C° 0.2 mm 1 m/S 715 mmHg 96%
09:00 +11°C° 0.2 mm 1 m/S 716 mmHg 96%
10:00 +11°C° 0 mm 0 m/S 716 mmHg 92%
11:00 +12°C° 0 mm 0 m/S 716 mmHg 89%
12:00 +13°C° 0 mm 0 m/S 716 mmHg 86%
13:00 +13°C° 0 mm 0 m/S 716 mmHg 85%
14:00 +14°C° 0 mm 1 m/S 716 mmHg 83%
15:00 +15°C° 0 mm 1 m/S 716 mmHg 82%
16:00 +13°C° 0 mm 1 m/S 716 mmHg 86%
17:00 +12°C° 0 mm 1 m/S 716 mmHg 91%
18:00 +10°C° 0 mm 0 m/S 716 mmHg 95%
19:00 +10°C° 0 mm 0 m/S 716 mmHg 95%
20:00 +9°C° 0 mm 0 m/S 716 mmHg 95%
21:00 +9°C° 0 mm 0 m/S 716 mmHg 95%
22:00 +9°C° 0 mm 0 m/S 715 mmHg 94%
23:00 +9°C° 0 mm 0 m/S 715 mmHg 94%

übermorgen, 30 September, Mittwoch

Zeit Temperatur Niederschläge Wind Luftdruck Luftfeuchtigkeit
00:00 +8°C° 0 mm 0 m/S 715 mmHg 94%
01:00 +8°C° 0 mm 0 m/S 715 mmHg 94%
02:00 +8°C° 0 mm 0 m/S 715 mmHg 93%
03:00 +8°C° 0 mm 0 m/S 714 mmHg 93%
04:00 +8°C° 0 mm 0 m/S 714 mmHg 93%
05:00 +8°C° 0 mm 0 m/S 714 mmHg 92%
06:00 +8°C° 0 mm 0 m/S 714 mmHg 92%
07:00 +10°C° 0 mm 0 m/S 714 mmHg 86%
08:00 +13°C° 0 mm 0 m/S 714 mmHg 79%
09:00 +16°C° 0 mm 1 m/S 714 mmHg 72%
10:00 +18°C° 0 mm 1 m/S 714 mmHg 67%
11:00 +19°C° 0 mm 1 m/S 714 mmHg 62%
12:00 +20°C° 0 mm 1 m/S 714 mmHg 57%
13:00 +20°C° 0 mm 1 m/S 713 mmHg 58%
14:00 +20°C° 0 mm 1 m/S 713 mmHg 60%
15:00 +20°C° 0 mm 1 m/S 712 mmHg 61%
16:00 +18°C° 0 mm 1 m/S 712 mmHg 71%
17:00 +14°C° 0 mm 1 m/S 712 mmHg 80%
18:00 +12°C° 0 mm 1 m/S 712 mmHg 89%
19:00 +12°C° 0 mm 1 m/S 711 mmHg 90%
20:00 +11°C° 0 mm 1 m/S 711 mmHg 90%
21:00 +11°C° 0 mm 1 m/S 711 mmHg 91%
22:00 +11°C° 0 mm 1 m/S 711 mmHg 91%
23:00 +11°C° 0 mm 1 m/S 710 mmHg 91%

1 Oktober, Donnerstag

Zeit Temperatur Niederschläge Wind Luftdruck Luftfeuchtigkeit
00:00 +10°C° 0 mm 1 m/S 710 mmHg 91%
01:00 +10°C° 0 mm 1 m/S 709 mmHg 91%
02:00 +11°C° 0 mm 1 m/S 709 mmHg 90%
03:00 +11°C° 0 mm 1 m/S 709 mmHg 90%
04:00 +11°C° 0 mm 1 m/S 708 mmHg 90%
05:00 +11°C° 0 mm 1 m/S 708 mmHg 90%
06:00 +11°C° 0 mm 1 m/S 708 mmHg 90%
07:00 +13°C° 0 mm 1 m/S 708 mmHg 82%
08:00 +15°C° 0 mm 1 m/S 708 mmHg 75%
09:00 +18°C° 0 mm 1 m/S 708 mmHg 67%
10:00 +19°C° 0 mm 1 m/S 708 mmHg 66%
11:00 +18°C° 0 mm 2 m/S 707 mmHg 65%
12:00 +18°C° 0 mm 2 m/S 707 mmHg 63%
13:00 +18°C° 0.2 mm 2 m/S 707 mmHg 67%
14:00 +18°C° 0.2 mm 2 m/S 707 mmHg 71%
15:00 +17°C° 0.2 mm 2 m/S 706 mmHg 75%
16:00 +16°C° 0.2 mm 2 m/S 706 mmHg 80%
17:00 +15°C° 0.2 mm 1 m/S 706 mmHg 85%
18:00 +13°C° 0.2 mm 1 m/S 706 mmHg 90%
19:00 +13°C° 1.2 mm 1 m/S 706 mmHg 92%
20:00 +13°C° 1.2 mm 2 m/S 706 mmHg 94%
21:00 +13°C° 1.2 mm 2 m/S 706 mmHg 96%
22:00 +12°C° 1.6 mm 2 m/S 706 mmHg 96%
23:00 +12°C° 1.6 mm 2 m/S 705 mmHg 95%

2 Oktober, Freitag

Zeit Temperatur Niederschläge Wind Luftdruck Luftfeuchtigkeit
00:00 +12°C° 1.6 mm 2 m/S 705 mmHg 95%
01:00 +10°C° 0.9 mm 2 m/S 705 mmHg 95%
02:00 +10°C° 0.9 mm 2 m/S 704 mmHg 95%
03:00 +10°C° 0.9 mm 2 m/S 704 mmHg 95%
04:00 +11°C° 0 mm 1 m/S 703 mmHg 95%
05:00 +10°C° 0 mm 1 m/S 703 mmHg 95%
06:00 +10°C° 0 mm 1 m/S 703 mmHg 95%
07:00 +11°C° 0 mm 1 m/S 702 mmHg 91%
08:00 +13°C° 0 mm 1 m/S 702 mmHg 87%
09:00 +14°C° 0 mm 1 m/S 701 mmHg 83%
10:00 +15°C° 0.2 mm 1 m/S 701 mmHg 83%
11:00 +15°C° 0.2 mm 1 m/S 701 mmHg 82%
12:00 +15°C° 0.2 mm 2 m/S 700 mmHg 81%
13:00 +15°C° 0.7 mm 1 m/S 700 mmHg 85%
14:00 +14°C° 0.7 mm 1 m/S 700 mmHg 90%
15:00 +14°C° 0.7 mm 1 m/S 700 mmHg 95%
16:00 +13°C° 0.2 mm 1 m/S 699 mmHg 96%
17:00 +13°C° 0.2 mm 1 m/S 699 mmHg 96%
18:00 +12°C° 0.2 mm 1 m/S 699 mmHg 97%
19:00 +12°C° 0 mm 1 m/S 698 mmHg 96%
20:00 +12°C° 0 mm 1 m/S 698 mmHg 95%
21:00 +11°C° 0 mm 1 m/S 697 mmHg 94%
22:00 +11°C° 0 mm 1 m/S 696 mmHg 94%
23:00 +11°C° 0 mm 1 m/S 696 mmHg 93%

3 Oktober, Samstag

Zeit Temperatur Niederschläge Wind Luftdruck Luftfeuchtigkeit
00:00 +11°C° 0 mm 1 m/S 695 mmHg 92%
01:00 +11°C° 0 mm 1 m/S 694 mmHg 92%
02:00 +11°C° 0 mm 1 m/S 693 mmHg 93%
03:00 +10°C° 0 mm 1 m/S 692 mmHg 93%
04:00 +10°C° 0 mm 1 m/S 692 mmHg 93%
05:00 +11°C° 0 mm 1 m/S 692 mmHg 93%
06:00 +11°C° 0 mm 1 m/S 691 mmHg 93%
07:00 +10°C° 1.9 mm 2 m/S 692 mmHg 94%
08:00 +10°C° 1.9 mm 3 m/S 692 mmHg 95%
09:00 +10°C° 1.9 mm 4 m/S 693 mmHg 96%
10:00 +10°C° 3.1 mm 3 m/S 693 mmHg 96%
11:00 +9°C° 3.1 mm 3 m/S 693 mmHg 96%
12:00 +8°C° 3.1 mm 3 m/S 694 mmHg 96%
13:00 +8°C° 1.7 mm 3 m/S 694 mmHg 95%
14:00 +7°C° 1.7 mm 2 m/S 694 mmHg 94%
15:00 +7°C° 1.7 mm 2 m/S 695 mmHg 93%
16:00 +7°C° 0.6 mm 2 m/S 695 mmHg 94%
17:00 +6°C° 0.6 mm 2 m/S 696 mmHg 94%
18:00 +7°C° 0.6 mm 1 m/S 696 mmHg 95%
19:00 +7°C° 0.2 mm 1 m/S 697 mmHg 95%
20:00 +7°C° 0.2 mm 1 m/S 697 mmHg 95%
21:00 +7°C° 0.2 mm 1 m/S 697 mmHg 95%
22:00 +7°C° 1.1 mm 1 m/S 698 mmHg 95%
23:00 +6°C° 1.1 mm 2 m/S 698 mmHg 96%
Mehr zeigen